This is the latest recevied weather packets stored in our database for station/object JE7UPL-13. If no packets are shown the sender has not sent any weather packets the latest 10 day(s).
| Time | Temp. | Humidity | Pressure | Rain* | Wind** | Luminosity | Snow |
|---|---|---|---|---|---|---|---|
| 1778000405 | 15° C | 24% | 1013.3 hPa | 0 mm | - | - | - |
| 1777999505 | 15° C | 24% | 1013.5 hPa | 0 mm | - | - | - |
| 1777998605 | 15° C | 24% | 1013.6 hPa | 0 mm | - | - | - |
| 1777997705 | 15° C | 24% | 1013.7 hPa | 0 mm | - | - | - |
| 1777996805 | 15° C | 24% | 1013.7 hPa | 0 mm | - | - | - |
| 1777995906 | 15° C | 27% | 1013.5 hPa | 0 mm | - | - | - |
| 1777995005 | 15° C | 28% | 1013.6 hPa | 0 mm | - | - | - |
| 1777994105 | 15° C | 26% | 1013.2 hPa | 0 mm | - | - | - |
| 1777993210 | 15° C | 26% | 1013.2 hPa | 0 mm | - | - | - |
| 1777992306 | 15.56° C | 25% | 1012.9 hPa | 0 mm | - | - | - |
| 1777991406 | 15.56° C | 24% | 1013.3 hPa | 0 mm | - | - | - |
| 1777990505 | 15° C | 26% | 1013.5 hPa | 0 mm | - | - | - |
| 1777989606 | 15° C | 25% | 1013.3 hPa | 0 mm | - | - | - |
| 1777988706 | 15° C | 25% | 1012.9 hPa | 0 mm | - | - | - |
| 1777987806 | 15° C | 25% | 1012.7 hPa | 0 mm | - | - | - |
| 1777986905 | 15° C | 29% | 1012.6 hPa | 0 mm | - | - | - |
| 1777986005 | 15° C | 29% | 1012.5 hPa | 0 mm | - | - | - |
| 1777985105 | 15° C | 31% | 1012.2 hPa | 0 mm | - | - | - |
| 1777984206 | 14.44° C | 33% | 1012.3 hPa | 0 mm | - | - | - |
| 1777983305 | 14.44° C | 36% | 1012.6 hPa | 0 mm | - | - | - |
| 1777982405 | 14.44° C | 39% | 1012.9 hPa | 0 mm | - | - | - |
| 1777981505 | 14.44° C | 41% | 1013.1 hPa | 0 mm | - | - | - |
| 1777980606 | 14.44° C | 42% | 1012.9 hPa | 0 mm | - | - | - |
| 1777979705 | 14.44° C | 50% | 1012.9 hPa | 0 mm | - | - | - |
| 1777978805 | 14.44° C | 53% | 1012.8 hPa | 0 mm | - | - | - |
* Rain latest hour (hover to see other rain measurements)
** Current wind speed in m/s (hover to see current wind gust speed)